This is the latest recevied weather packets stored in our database for station/object EA4HRG-10. If no packets are shown the sender has not sent any weather packets the latest 10 day(s).
| Time | Temp. | Humidity | Pressure | Rain* | Wind** | Luminosity | Snow |
|---|---|---|---|---|---|---|---|
| 1788170137 | 32.22° C | 23% | 1014.1 hPa | - | - | - | - |
| 1788169237 | 31.67° C | 23% | 1014.3 hPa | - | - | - | - |
| 1788168338 | 32.22° C | 24% | 1014.2 hPa | - | - | - | - |
| 1788167438 | 30.56° C | 24% | 1014.8 hPa | - | - | - | - |
| 1788166538 | 31.11° C | 24% | 1014.7 hPa | - | - | - | - |
| 1788165637 | 27.78° C | 28% | 1016 hPa | - | - | - | - |
| 1788164737 | 18.89° C | 43% | 1019.3 hPa | - | - | - | - |
| 1788163837 | 17.78° C | 44% | 1019.8 hPa | - | - | - | - |
| 1788162938 | 16.67° C | 47% | 1020.4 hPa | - | - | - | - |
| 1788162037 | 15° C | 50% | 1020.7 hPa | - | - | - | - |
| 1788161138 | 13.89° C | 55% | 1021.3 hPa | - | - | - | - |
| 1788160238 | 13.33° C | 57% | 1021.7 hPa | - | - | - | - |
| 1788159338 | 12.22° C | 60% | 1022 hPa | - | - | - | - |
| 1788158437 | 11.11° C | 63% | 1022.3 hPa | - | - | - | - |
| 1788157538 | 10.56° C | 65% | 1022.5 hPa | - | - | - | - |
| 1788156637 | 10° C | 66% | 1022.5 hPa | - | - | - | - |
| 1788155737 | 10° C | 65% | 1022.5 hPa | - | - | - | - |
| 1788154838 | 10° C | 65% | 1022.3 hPa | - | - | - | - |
| 1788153938 | 10° C | 64% | 1022 hPa | - | - | - | - |
| 1788153055 | 10° C | 64% | 1022 hPa | - | - | - | - |
| 1788152137 | 10.56° C | 63% | 1021.7 hPa | - | - | - | - |
| 1788151238 | 10.56° C | 62% | 1021.7 hPa | - | - | - | - |
| 1788150337 | 10.56° C | 62% | 1021.7 hPa | - | - | - | - |
| 1788149437 | 11.11° C | 61% | 1021.5 hPa | - | - | - | - |
| 1788148537 | 11.11° C | 61% | 1021.5 hPa | - | - | - | - |
* Rain since midnight (hover to see other rain measurements)
** Current wind speed in m/s (hover to see current wind gust speed)